Location: *
(50.8512°N, 5.6907°E)
Time: 09:01:27
(UTC+00:00)

Daily predictions for brighter satellites

Satellite Brightness Start Highest point End
(mag) Time Altitude Azimuth Time Altitude Azimuth Time Altitude Azimuth
ARGOS Delta rocket 4.3 18:47:40 10° S 18:53:03 83° WSW 18:58:36 10° NNW
IRIDIUM 114 4.4 18:48:43 10° N 18:54:00 87° E 18:59:13 10° S
STARLINK-1237 3.8 18:51:06 10° WNW 18:55:15 74° NNE 18:59:24 10° E
STARLINK-1202 3.7 18:56:07 10° WNW 19:00:16 76° NNE 19:04:25 10° E
Cosmos 2058 Rocket 3.7 18:56:15 10° SSE 19:00:20 35° E 19:04:26 10° NNE
Cosmos 1461 3.2 18:57:41 10° NW 19:02:13 80° SW 19:06:52 10° SE
STARLINK-1228 3.3 18:59:36 10° WNW 19:02:27 49° SSW 19:05:19 10° SE
Cosmos 1726 Rocket 3.7 18:58:37 10° S 19:02:55 55° E 19:07:18 10° NNE
SL-08 RB Rocket 3.9 18:59:07 10° SSE 19:03:36 58° ENE 19:08:10 10° N
Cosmos 921 Rocket 3.1 19:00:31 10° NNW 19:04:39 54° ENE 19:08:46 10° SE
Cosmos 1703 3.3 19:01:07 10° N 19:05:07 89° E 19:09:05 10° S
Cosmos 2341 Rocket 4.5 18:59:31 10° N 19:05:37 44° ENE 19:11:41 10° SE
Meteor 2-17 Rocket 4.5 18:59:29 10° N 19:05:39 70° ENE 19:11:47 10° SSE
SL-4 R/B 1.5 19:03:25 10° WSW 19:06:48 64° SSE 19:10:12 10° ENE
Cosmos 1437 4.3 19:04:32 10° NNW 19:07:21 36° W 19:10:09 10° SSW
Cosmos 2184 Rocket 4.2 19:01:13 10° NNW 19:07:31 80° W 19:13:43 10° S
Cosmos 1726 2.5 19:03:52 10° SSW 19:07:35 70° WNW 19:11:19 10° N
ADEOS Rocket 4.0 19:01:52 10° N 19:08:04 53° WNW 19:13:42 10° SW
CZ-4C R/B 3.9 19:02:41 10° NW 19:08:26 32° NNE 19:15:05 10° E
Cosmos 1825 Rocket 4.0 19:04:04 10° NNW 19:08:27 68° W 19:12:45 10° S
Meteor 2-10 4.4 19:04:03 10° SSW 19:09:35 82° WNW 19:15:20 10° NNE
STARLINK-1246 3.7 19:06:03 10° WNW 19:10:13 81° NNE 19:14:15 11° ESE
Cosmos 407 Rocket 3.5 19:05:57 10° S 19:10:58 57° ESE 19:16:00 10° NNE
RESURS DK-1 4.3 19:08:07 10° N 19:11:00 18° NE 19:13:53 10° E
Cosmos 1908 3.2 19:07:29 10° S 19:11:19 65° E 19:15:12 10° NNE
STARLINK-1201 3.2 19:08:18 10° WNW 19:11:33 65° SSW 19:14:33 12° ESE
Cosmos 1340 Rocket 3.2 19:07:58 10° SSE 19:11:48 43° E 19:15:38 10° NNE
Cosmos 1328 3.9 19:07:47 10° NNW 19:11:50 82° W 19:15:49 10° S
FREGAT/IRIS 2.7 19:09:38 10° S 19:12:20 68° W 19:15:04 10° NNW
Cosmos 2228 3.0 19:09:30 10° S 19:13:48 81° E 19:18:11 10° NNE
STARLINK-1224 3.6 19:11:04 10° WNW 19:15:14 84° NNE 19:19:04 12° ESE
STARLINK-1203 3.7 19:13:12 10° WNW 19:17:25 88° N 19:21:13 13° ESE
Cosmos 1943 3.7 19:12:17 10° SW 19:17:56 68° WNW 19:23:39 10° NNE
Cosmos 2058 4.3 19:15:16 10° NNE 19:18:31 22° ENE 19:21:10 13° ESE
MOS 1 4.5 19:14:03 10° SSE 19:19:43 78° WSW 19:25:26 10° NNW
STARLINK-1225 3.6 19:16:03 10° WNW 19:20:13 87° NNE 19:23:51 13° ESE
MetOp-A 4.2 19:15:16 10° SSE 19:20:33 65° ENE 19:25:53 10° N
MOS 1 Rocket 4.2 19:16:44 10° NNE 19:21:46 38° E 19:26:47 10° SSE
Resurs 01 Rocket 2.2 19:17:50 10° SE 19:21:56 40° ENE 19:26:05 10° N
CZ-2C R/B 3.2 19:18:23 10° NNE 19:23:06 34° E 19:27:49 10° SSE
STARLINK-52 3.7 19:20:22 10° SSW 19:23:16 32° SSE 19:25:56 12° E
STARLINK-1230 3.6 19:21:01 10° WNW 19:25:11 90° NNE 19:28:37 15° ESE
Nadezhda 1 Rocket 4.0 19:19:50 10° S 19:26:13 80° E 19:32:33 10° NNE
BREEZE M DEB (TANK) 4.0 19:23:37 10° S 19:26:32 24° SE 19:32:42 10° ENE
Cosmos 1697 Rocket 4.1 19:23:46 10° NNW 19:28:28 25° NE 19:32:44 12° E
SL-8 Rocket 4.4 19:23:05 10° N 19:29:11 48° ENE 19:35:13 10° SE
SPOT 3 Rocket 3.5 19:24:25 10° SSE 19:29:38 80° ENE 19:34:51 10° NNW
Cosmos 1023 Rocket 4.4 19:24:49 10° S 19:29:54 62° ESE 19:34:59 10° NNE
STARLINK-1243 3.6 19:25:59 10° WNW 19:30:09 87° SSW 19:33:24 16° ESE
SL-24 R/B - RUBIN 2 4.3 19:24:38 10° SSW 19:30:18 73° SE 19:36:42 10° NE
Cosmos 2154 Rocket 4.2 19:24:09 10° NNW 19:30:33 82° W 19:36:52 10° S
ARGOS 3.6 19:25:49 10° S 19:31:10 65° WSW 19:36:32 10° NNW
Cosmos 1953 Rocket 4.3 19:27:04 10° NNW 19:31:30 59° W 19:35:54 10° S
FALCON 9 DEB 3.6 19:28:18 10° SW 19:31:36 40° SSE 19:34:33 12° E
Cosmos 1606 Rocket 4.1 19:29:09 10° SSW 19:33:33 63° WNW 19:38:02 10° N
NOSS 3-4 (C) 4.5 19:27:01 10° NW 19:33:45 54° SW 19:41:10 10° SSE
STARLINK-1236 3.6 19:30:59 10° WNW 19:35:08 84° SSW 19:38:11 18° ESE
Cosmos 1954 Rocket 4.2 19:31:14 10° S 19:36:13 47° ESE 19:41:13 10° NE
Cosmos 2181 Rocket 4.4 19:30:49 10° SSE 19:36:34 41° E 19:42:17 10° NNE
USA 186 3.4 19:33:39 10° SSW 19:36:40 35° W 19:39:34 10° NNW
Cosmos 2366 rocket 4.3 19:37:23 10° N 19:43:20 47° ENE 19:48:11 15° SE
Cosmos 1076 Rocket 4.1 19:39:46 10° N 19:43:48 38° ENE 19:46:20 20° SE
Cosmos 1818 4.4 19:38:54 10° WSW 19:44:14 55° NW 19:49:37 10° NE
STARLINK-1269 3.6 19:40:56 10° WNW 19:45:05 77° SSW 19:47:44 21° ESE
Cosmos 1656 4.2 19:42:11 10° NNW 19:47:40 46° NE 19:51:23 19° ESE
Cosmos 1763 Rocket 4.0 19:43:17 10° NNW 19:48:17 44° ENE 19:51:28 20° ESE
SL-16 R/B 4.5 19:46:30 10° N 19:49:04 13° NNE 19:51:37 10° NE
STARLINK-1200 3.6 19:45:55 10° WNW 19:50:03 73° SSW 19:52:31 23° ESE
SPOT 1/Viking Rocket 4.5 19:50:06 19° ESE 19:53:02 33° ENE 19:57:41 10° N
STARLINK-1192 3.7 19:50:54 10° WNW 19:55:01 70° SSW 19:57:18 25° SE
STARLINK-1233 4.2 19:52:28 10° W 19:55:17 30° SW 19:56:38 21° S
STARLINK-1212 4.2 19:52:57 10° W 19:55:45 30° SW 19:57:04 21° S
Cosmos 1455 3.9 19:56:32 16° ENE 19:56:32 16° ENE 19:58:40 10° NE
STARLINK-1105 4.2 19:53:23 10° W 19:56:11 30° SW 19:57:31 21° S
SeaSat 1 3.9 19:51:46 10° NNE 19:56:25 41° NW 20:01:01 10° WSW
STARLINK-1206 4.3 19:53:52 10° W 19:56:38 29° SW 19:57:55 21° S
STARLINK-1247 4.3 19:54:20 10° W 19:57:06 29° SW 19:58:22 21° S
Iridium 4 Rocket 3.6 19:53:26 10° N 19:57:21 37° E 19:59:06 25° SE
STARLINK-1227 4.3 19:54:43 10° W 19:57:31 29° SW 19:58:47 21° S
STARLINK-1218 4.3 19:55:14 10° W 19:57:59 28° SW 19:59:13 21° S
STARLINK-1226 4.3 19:55:40 10° W 19:58:26 28° SW 19:59:40 21° S
Cosmos 1980 Rocket 3.7 19:54:03 10° NNW 19:58:37 24° NE 20:02:02 15° E
STARLINK-1254 4.3 19:56:06 10° W 19:58:52 28° SW 20:00:06 21° S
USA 234 4.0 19:54:00 10° ENE 19:59:20 26° SE 20:04:37 10° S
STARLINK-1215 4.3 19:56:36 10° W 19:59:20 28° SW 20:00:32 21° S
Cosmos 1174 4.0 19:55:40 10° NW 19:59:42 82° NE 20:02:39 24° SE
STARLINK-1231 4.3 19:57:03 10° W 19:59:47 28° SW 20:00:58 21° S
STARLINK-1244 3.7 19:55:58 10° WNW 20:00:05 66° SSW 20:02:10 27° SE
STARLINK-1232 4.4 19:57:58 10° W 20:00:41 27° SW 20:01:50 21° S
Cosmos 1892 3.2 19:57:00 10° N 20:00:44 41° ENE 20:02:12 29° ESE
STARLINK-1217 4.4 19:58:25 10° W 20:01:08 27° SW 20:02:16 21° S
Abrixas rocket 3.7 19:59:07 10° WSW 20:01:26 21° SSW 20:02:07 19° S
STARLINK-1208 4.4 19:58:50 10° W 20:01:34 27° SW 20:02:43 21° S
STARLINK-1229 4.4 19:59:19 10° W 20:02:01 27° SW 20:03:07 21° S
STARLINK-1271 4.4 19:59:46 10° W 20:02:29 27° SW 20:03:34 21° S
STARLINK-1270 4.4 20:00:14 10° W 20:02:55 26° SW 20:04:00 21° S
STARLINK-1154 4.4 20:00:42 10° W 20:03:23 26° SW 20:04:26 21° S
STARLINK-1197 4.4 20:01:36 10° W 20:04:16 26° SW 20:05:18 21° S
STARLINK-1189 4.4 20:02:02 10° W 20:04:42 26° SW 20:05:43 21° S
H-2A R/B 3.9 20:00:25 10° SSW 20:04:53 29° W 20:09:17 10° NNW
STARLINK-1138 3.8 20:00:52 10° WNW 20:04:58 63° SSW 20:06:52 30° SE
STARLINK-1198 4.5 20:02:31 10° W 20:05:10 25° SW 20:06:10 21° S
Cosmos 1825 3.7 20:02:14 10° NNE 20:05:11 21° ENE 20:05:39 20° ENE
ATLAS 2AS CENTAUR R/B 4.2 19:58:49 10° NW 20:05:26 34° WSW 20:11:33 10° S
ATLAS 5 CENTAUR R/B 1.7 20:01:19 10° SW 20:05:33 77° NW 20:10:26 10° NE
STARLINK-1188 4.5 20:02:57 10° W 20:05:36 25° SW 20:06:35 21° S
STARLINK-1199 4.5 20:04:54 10° W 20:07:34 25° SW 20:08:31 21° S
COSMOS 2455 3.6 20:03:01 10° NW 20:08:47 49° WSW 20:13:57 13° S
Cosmos-2242 4.2 20:08:42 23° E 20:08:52 23° E 20:12:20 10° NE
STARLINK-1143 3.8 20:05:51 10° WNW 20:09:56 59° SSW 20:11:39 32° SE
Cosmos 1140 Rocket 3.9 20:07:57 10° SW 20:13:06 65° WNW 20:18:15 10° NNE
ERBS 2.5 20:10:04 10° WNW 20:13:24 59° SW 20:14:20 40° SSE
Cosmos 1356 Rocket 4.4 20:13:46 28° E 20:13:57 28° E 20:17:36 10° NNE
STARLINK-1241 3.9 20:10:52 10° WNW 20:14:56 56° SSW 20:16:28 34° SSE
STARLINK-29 2.8 20:15:40 10° WSW 20:18:52 81° SSE 20:19:44 45° E
STARLINK-1239 4.0 20:15:51 10° WNW 20:19:53 53° SSW 20:21:14 36° SSE
SAR-Lupe-2 3.5 20:16:40 10° NNE 20:20:13 58° ESE 20:21:15 40° SSE
ATLAS CENTAUR R/B 2.2 20:17:20 10° NNW 20:21:01 36° NE 20:22:10 29° ENE
IGS 5A 3.7 20:20:27 37° ESE 20:21:45 52° ENE 20:25:48 10° N
Cosmos 1300 3.2 20:19:32 10° SSW 20:23:17 58° WNW 20:27:05 10° N
USA 32 4.4 20:19:24 10° N 20:24:29 47° ENE 20:26:24 33° SE
STARLINK-1240 4.1 20:20:50 10° WNW 20:24:51 49° SSW 20:26:01 37° SSE
Spot 2 Rocket 3.4 20:22:15 27° SSE 20:25:07 81° ENE 20:30:15 10° NNW
STARLINK-60 3.2 20:23:27 10° W 20:26:44 68° NNW 20:27:47 38° ENE
Cosmos 841 Rocket 3.8 20:22:20 10° NNW 20:27:32 52° ENE 20:29:32 34° ESE
Cosmos 1850 Rocket 4.0 20:24:21 17° S 20:28:08 53° ESE 20:33:12 10° NNE
In-Cosmos 22 Rocket 4.4 20:22:42 10° NNW 20:28:35 77° W 20:32:45 20° S
STARLINK-1216 4.1 20:25:49 10° WNW 20:29:48 46° SSW 20:30:47 38° S
Cosmos 2278 4.4 20:24:49 10° NNW 20:30:10 41° NE 20:32:29 28° E
Terra 2.8 20:29:53 28° E 20:31:01 32° ENE 20:35:13 10° N
Cosmos 2082 Rocket 3.8 20:34:09 17° ENE 20:34:09 17° ENE 20:36:18 10° ENE
SPOT 5 3.2 20:31:40 35° E 20:32:30 39° ENE 20:36:32 10° N
SL-08 R/B 4.4 20:27:16 10° N 20:33:26 73° ENE 20:36:44 29° SSE
STARLINK-1237 4.2 20:30:47 10° WNW 20:34:44 44° SSW 20:35:33 38° S
Meteor 2-10 Rocket 3.9 20:33:52 36° SE 20:35:13 43° E 20:40:22 10° NNE
MetOp-B 4.2 20:32:14 24° S 20:35:35 76° WSW 20:40:59 10° NNW
Cosmos 1833 Rocket 3.4 20:39:02 31° E 20:39:02 31° E 20:43:41 10° NE
STARLINK-1202 4.3 20:35:48 10° WNW 20:39:42 41° SW 20:40:21 38° S
Cosmos 468 Rocket 4.2 20:34:56 10° NNW 20:40:04 66° WSW 20:42:31 31° S
CARTOSAT-1 3.9 20:39:31 43° E 20:40:14 48° ENE 20:44:25 10° N
CZ-4B DEB 4.4 20:40:16 65° ENE 20:40:16 65° ENE 20:43:37 10° N
SL-4 R/B 1.5 20:42:56 10° W 20:46:21 76° N 20:46:33 72° NE
Cosmos 1408 2.4 20:43:05 10° N 20:46:46 77° E 20:46:55 75° ESE
ERS-1 Rocket 2.9 20:47:01 45° SE 20:48:29 68° ENE 20:53:30 10° N
STARLINK-1246 4.5 20:45:48 10° WNW 20:49:37 36° SW 20:49:54 35° SSW
RESURS DK-1 2.2 20:45:27 10° NNW 20:49:38 86° WSW 20:50:15 64° SSE
Cosmos 1766 Rocket 3.6 20:47:54 10° N 20:52:20 60° ENE 20:52:50 56° ESE
Cosmos 1570 Rocket 4.0 20:47:24 10° NNW 20:52:48 88° WSW 20:54:32 45° SSE
BREEZE M DEB (TANK) 2.8 20:47:32 10° WSW 20:53:25 61° S 20:53:25 61° S
Okean 3 Rocket 3.5 20:49:28 10° N 20:53:55 73° E 20:54:34 61° SE
Cosmos 2058 3.9 20:51:44 10° NNW 20:55:38 42° W 20:57:23 27° SW
CZ-4C R/B 3.0 20:51:18 10° NW 20:58:10 67° NE 21:01:48 34° ESE
COSMOS 2406 3.1 20:54:52 23° SSW 20:58:25 69° ESE 21:04:08 10° NNE
Resurs 01 Rocket 3.4 20:55:18 12° SSW 20:58:33 27° W 21:02:20 10° NW
STARLINK-52 3.9 20:56:04 10° W 20:58:28 45° W 20:58:28 45° W
CZ-2C R/B 3.8 20:58:40 10° N 21:03:29 40° WNW 21:08:18 10° SW
Cosmos 1812 Rocket 4.5 21:02:25 17° SW 21:05:31 46° WNW 21:09:43 10° N
Cosmos 2151 2.9 21:02:55 10° NNW 21:07:08 75° W 21:07:34 67° SSW
FALCON 9 DEB 3.8 21:05:04 10° W 21:07:53 53° WNW 21:07:53 53° WNW
Cosmos 1697 Rocket 2.6 21:07:25 10° NNW 21:13:08 82° WSW 21:14:28 54° SSE
Cosmos 2369 3.6 21:07:33 10° NNW 21:13:15 84° WSW 21:14:34 55° SSE
Cosmos 1455 3.0 21:31:25 47° WNW 21:31:26 47° WNW 21:35:10 10° N
Cosmos 1408 Rocket 3.6 21:27:10 10° N 21:31:22 78° N 21:31:22 78° N
SPOT 1/Viking Rocket 4.4 21:30:43 34° SW 21:32:20 44° W 21:37:21 10° NNW
Cosmos 540 Rocket 3.8 21:28:37 10° NNW 21:33:41 56° WSW 21:34:20 52° SW
Cosmos 1743 Rocket 4.2 21:29:57 10° N 21:33:44 48° NE 21:33:44 48° NE
SL-16 R/B 3.2 21:29:47 10° NNW 21:34:59 35° NE 21:36:11 32° ENE
Cosmos 2360 Rocket 4.0 21:31:00 10° NNW 21:35:16 21° NE 21:37:31 17° ENE
Cosmos 1825 3.5 21:37:19 10° NNW 21:40:28 36° WNW 21:40:28 36° WNW
Cosmos 2322 Rocket 3.2 21:36:48 10° NNW 21:41:57 34° NE 21:43:04 31° ENE
USA 234 3.1 21:36:31 10° ENE 21:43:05 74° SE 21:49:38 10° SW
Cosmos 1980 Rocket 2.0 21:37:41 10° NNW 21:43:21 86° WSW 21:43:48 76° S
Nadezhda 3 Rocket 4.1 21:41:26 42° SSW 21:43:42 74° W 21:50:00 10° N
Cosmos 2221 3.8 21:46:37 32° NE 21:46:37 32° NE 21:49:14 10° NNE
Cosmos 1535 Rocket 4.4 21:39:46 10° N 21:45:58 89° W 21:46:59 65° S
Cosmos-2242 4.0 21:45:30 38° W 21:46:12 41° WNW 21:50:22 10° N
ASTEX 1 3.3 21:50:00 84° NNW 21:50:00 84° NNW 21:54:50 10° N
ATLAS 5 CENTAUR R/B 3.9 21:47:11 10° WNW 21:51:01 25° NNW 21:55:19 10° NE
Meteor 2-3 Rocket 3.7 21:49:02 10° NNW 21:54:46 71° W 21:55:21 65° SW
Cosmos 2084 4.1 21:53:45 10° NW 21:57:21 54° NNW 21:57:21 54° NNW
ATLAS CENTAUR R/B 3.2 21:56:24 10° WNW 21:58:21 23° WNW 21:58:21 23° WNW
Cosmos 1727 Rocket 4.4 22:05:51 47° E 22:05:51 47° E 22:11:37 10° NNE
Mayak 0.0 22:02:22 10° NNE 22:04:58 38° NNE 22:04:58 38° NNE
Cosmos 1842 Rocket 4.5 22:09:34 45° N 22:09:34 45° N 22:12:38 10° N
Terra 2.8 22:08:45 39° W 22:08:45 39° W 22:13:09 10° NNW
Cosmos 1934 Rocket 4.2 22:04:23 10° NNW 22:10:33 61° W 22:11:27 55° SW
SPOT 5 4.2 22:10:53 26° W 22:10:53 26° W 22:14:24 10° NW
Cosmos 2278 4.3 22:09:03 10° NW 22:14:23 44° WSW 22:14:24 44° WSW
Cosmos 2082 Rocket 2.1 22:15:56 83° NW 22:15:56 83° NW 22:21:34 10° NNE
Sich 1 4.3 22:12:12 10° N 22:15:12 36° NNE 22:15:12 36° NNE
Cosmos 2100 Rocket 4.3 22:14:28 10° N 22:20:32 51° ENE 22:20:40 51° ENE
Cosmos 1486 Rocket 4.4 22:22:40 57° NE 22:22:40 57° NE 22:26:51 10° NNE
Cosmos 1833 Rocket 3.3 22:20:38 38° WSW 22:22:27 53° NW 22:28:00 10° NNE
Meteor 2-2 Rocket 4.3 22:24:28 70° NE 22:24:28 70° NE 22:29:33 10° NNE
Cosmos 968 Rocket 4.3 22:25:40 43° NE 22:25:40 43° NE 22:29:20 10° NNE
Cosmos 2173 Rocket 4.3 22:20:21 10° N 22:26:16 52° ENE 22:26:16 52° ENE
Cosmos 1605 Rocket 4.0 22:22:55 10° NNW 22:29:00 67° W 22:29:21 65° WSW
Cosmos 2219 Rocket 4.1 22:28:07 10° NNW 22:32:24 22° NE 22:34:42 17° ENE
Cosmos 2344 4.4 22:25:29 10° NW 22:34:54 70° SW 22:38:35 49° S
ALOS 2 3.9 22:36:50 38° NNE 22:36:50 38° NNE 22:39:45 10° N
NOSS 2-1 (C) 4.3 22:32:25 10° NW 22:37:02 70° NNE 22:37:02 70° NNE
NOSS 2-1 (D) 4.3 22:36:39 10° NW 22:41:11 72° N 22:41:11 72° N
CZ-4C R/B 3.5 22:40:00 10° NW 22:46:44 43° WSW 22:46:59 43° SW
Cosmos 1633 Rocket 4.5 22:53:29 10° N 22:56:12 36° N 22:56:12 36° N
COSMOS 2428 4.2 22:57:09 10° NNW 23:02:06 29° NE 23:03:37 25° ENE
Cosmos 1607 4.2 23:12:04 60° WNW 23:12:43 64° NW 23:18:57 10° NE
SL-16 R/B 3.0 23:13:50 10° NW 23:18:02 43° WNW 23:18:02 43° WNW
Cosmos 2360 Rocket 2.5 23:14:31 10° NNW 23:19:17 63° N 23:19:17 63° N
USA 234 3.6 23:19:38 10° ENE 23:26:04 61° NNW 23:32:28 10° W
Cosmos 2322 Rocket 3.0 23:20:47 10° NW 23:24:52 43° WNW 23:24:52 43° WNW
Cosmos 1980 Rocket 4.3 23:23:13 10° WNW 23:25:34 15° W 23:25:34 15° W
Cosmos 2061 Rocket 4.0 23:24:57 10° NNW 23:30:49 76° NW 23:30:49 76° NW
Cosmos 1459 Rocket 4.4 23:30:22 10° NNW 23:36:11 55° WNW 23:36:11 55° WNW
ATLAS 5 CENTAUR R/B 4.4 23:33:30 10° NW 23:37:18 21° N 23:41:33 10° ENE
MOS 1-B Rocket 4.1 23:34:02 10° NNE 23:40:20 85° ESE 23:40:21 85° ESE
Mayak 1.4 23:39:27 10° NNW 23:41:30 13° WNW 23:41:32 13° WNW
Cosmos 2333 Rocket 2.7 23:36:57 10° NNW 23:42:25 52° NE 23:42:25 52° NE
Cosmos 2237 Rocket 4.1 23:38:32 10° NNW 23:43:15 26° NE 23:46:25 16° E
Cosmos 2233 Rocket 4.0 23:41:49 10° N 23:47:50 73° NE 23:47:50 73° NE
Cosmos 1680 Rocket 4.2 23:44:45 10° NNW 23:49:10 50° NNE 23:49:10 50° NNE
SL-16 R/B 4.0 23:48:43 24° E 23:51:02 31° ENE 23:56:21 10° N
